EDT,Max TemperatureF,Mean TemperatureF,Min TemperatureF,Max Dew PointF,MeanDew PointF,Min DewpointF,Max Humidity, Mean Humidity, Min Humidity, Max Sea Level PressureIn, Mean Sea Level PressureIn, Min Sea Level PressureIn, Max VisibilityMiles, Mean VisibilityMiles, Min VisibilityMiles, Max Wind SpeedMPH, Mean Wind SpeedMPH, Max Gust SpeedMPH,PrecipitationIn, CloudCover, Events, WindDirDegrees
2012-4-1,63,54,44,52,44,37,92,70,48,29.93,29.80,29.59,10,6,2,15,5,18,T,6,Rain,131
2012-4-2,60,52,44,52,36,24,96,63,29,29.99,29.80,29.59,10,8,2,25,12,32,0.01,4,Rain,338
2012-4-3,67,52,36,31,23,16,48,34,19,30.08,29.96,29.81,10,10,10,7,3,,0.00,0,,40
2012-4-4,73,62,50,47,35,23,71,46,20,29.81,29.73,29.62,10,10,9,23,8,28,T,2,Rain-Thunderstorm,313
2012-4-5,60,51,41,29,28,25,57,43,28,29.95,29.88,29.81,10,10,10,12,5,14,0.00,0,,1
2012-4-6,60,47,34,27,20,12,56,38,19,30.15,30.06,29.99,10,10,10,20,10,29,0.00,0,,360
2012-4-7,63,51,39,22,19,14,39,29,19,30.26,30.17,30.10,10,10,10,23,9,31,0.00,0,,324
2012-4-8,70,56,42,36,25,16,37,29,20,30.14,30.00,29.88,10,10,10,26,9,32,0.00,1,,292
2012-4-9,63,55,47,39,29,19,50,37,23,29.94,29.87,29.78,10,10,10,29,19,36,0.00,2,Rain,285
2012-4-10,59,49,38,35,29,24,79,53,26,29.93,29.84,29.77,10,10,10,22,11,28,0.00,3,,277
2012-4-11,50,42,33,37,31,25,75,62,49,30.10,29.99,29.92,10,10,2,26,8,32,0.03,6,Rain,298
2012-4-12,57,47,37,34,30,28,89,62,35,30.22,30.16,30.09,10,10,10,20,10,23,0.00,3,,317
2012-4-13,63,49,35,34,30,27,75,51,27,30.32,30.25,30.20,10,10,10,12,2,15,0.00,0,,145
2012-4-14,72,56,40,53,35,30,73,48,22,30.28,30.18,30.08,10,10,10,9,5,13,0.00,3,Rain,183
2012-4-15,79,68,56,55,53,51,93,66,39,30.11,30.05,30.01,10,9,5,14,5,20,0.05,3,Rain,172
2012-4-16,86,73,60,58,55,51,78,57,35,30.06,29.98,29.91,10,10,8,17,8,24,0.00,0,,178
2012-4-17,74,65,56,50,39,32,55,42,28,30.27,30.20,30.02,10,10,10,17,11,23,0.00,1,,307
2012-4-18,57,54,50,49,43,31,83,61,38,30.31,30.22,30.13,10,8,5,14,5,18,0.04,7,Rain,271
2012-4-19,68,58,47,50,47,42,100,72,44,30.17,30.11,30.03,10,6,0,10,3,14,0.00,5,Fog,177
2012-4-20,71,59,47,52,48,43,86,68,49,30.04,29.94,29.82,10,10,6,18,6,23,0.00,1,,163
2012-4-21,75,65,54,59,53,48,89,69,49,29.85,29.75,29.66,10,8,2,18,5,23,0.36,6,Rain,305
2012-4-22,52,49,46,47,43,37,86,83,80,29.85,29.72,29.51,10,8,5,17,9,22,0.16,8,Rain,356
2012-4-23,45,40,35,37,35,30,92,84,76,29.55,29.43,29.35,10,9,7,23,14,31,0.40,8,Rain,294
2012-4-24,59,48,36,31,25,19,70,47,23,29.75,29.60,29.52,10,10,10,25,11,31,0.00,3,,250
2012-4-25,66,52,38,34,29,25,76,48,20,29.90,29.84,29.75,10,10,10,21,8,26,0.00,1,,265
2012-4-26,67,58,48,59,48,30,68,55,41,29.88,29.72,29.57,10,10,8,10,5,14,T,5,Rain-Thunderstorm,264
2012-4-27,57,50,43,37,29,24,65,49,32,30.25,30.06,29.83,10,10,10,28,16,37,0.00,1,,312
2012-4-28,51,45,38,39,26,18,54,43,31,30.33,30.26,30.19,10,10,8,13,3,16,0.00,5,Rain,6
2012-4-29,69,53,36,41,34,21,100,62,24,30.29,30.22,30.15,10,6,0,12,3,14,0.00,1,Fog,29
2012-4-30,58,49,40,50,36,20,60,44,28,30.35,30.23,30.09,10,10,10,14,6,20,0.00,6,,133